Temp
24 23 22 21 21 21 20 20 20 21 21 21 21 21 21 22 22 22 22 22 21 22 23 23 25 29 31 35 41 42 43 43 38 41 47 50 47 57 55 59 54 59 54
22 21 20 20 19 18 18 19 20 19 20 19 20 19 20 20 20 20 20 21 20 20 21 22 23 31 32 32 39 40 41 43 41 38 44 46 46 55 55 58 56 58 57
20 18 18 17 17 17 17 17 18 17 17 17 17 16 17 18 18 19 19 19 19 20 20 20 21 26 28 30 37 38 41 43 43 40 41 44 44 56 54 54 56 56 56
18 16 16 16 16 15 15 15 15 15 14 14 14 14 15 15 17 18 19 19 19 20 21 22 22 24 27 30 32 36 38 37 38 38 38 42 44 54 55 52 51 53 52
15 14 14 15 15 14 13 13 12 12 12 12 12 12 12 13 16 15 17 18 18 18 20 22 23 26 29 31 31 34 36 35 35 35 36 38 47 52 51 52 52 52 52
12 13 14 13 12 11 10 10 9 9 9 9 10 10 11 14 17 20 21 19 21 21 21 22 25 26 28 32 34 36 37 34 32 32 34 35 46 52 53 52 51 48 45
13 11 9 9 7 7 7 7 6 5 7 8 9 9 10 11 17 20 22 21 21 21 21 22 23 27 28 30 34 37 38 39 38 34 33 34 50 54 53 51 50 50 50
10 7 7 7 4 5 4 3 4 5 6 6 7 8 9 11 16 19 21 21 21 23 22 22 23 24 27 29 31 33 33 33 34 36 36 37 38 57 54 55 52 49 52
8 7 6 4 1 1 -2 1 3 5 4 4 8 7 6 7 16 19 21 20 22 23 24 23 24 24 27 31 30 29 31 33 38 37 38 40 42 52 54 52 45 44 43
6 5 4 3 -2 -3 -0 -0 3 2 5 7 6 7 8 8 15 20 21 20 20 22 24 23 25 24 28 32 31 30 29 32 34 33 34 45 48 50 50 53 49 45 45
4 2 2 0 -3 -3 -0 1 1 2 4 3 6 9 11 13 13 18 22 19 19 19 21 24 24 28 30 32 35 32 31 35 34 32 33 45 47 48 49 51 53 51 46
1 -1 -4 -6 -5 0 -3 -2 0 1 2 4 6 9 12 14 15 18 20 21 22 19 20 24 25 29 32 34 34 36 37 36 33 32 32 42 45 47 48 49 52 53 55
-7 -8 -12 -5 -2 -2 -3 -2 -0 2 3 5 8 7 9 13 15 17 19 22 23 20 22 24 28 29 31 33 35 36 34 34 32 32 32 42 46 48 49 47 49 47 47
-10 -5 -2 -3 -4 -1 0 2 0 2 4 8 7 7 7 12 12 15 17 17 19 20 21 20 22 26 29 31 32 35 33 33 33 33 35 44 46 46 45 46 45 45 42
-5 -2 -4 -5 -7 -3 1 -1 4 7 10 9 8 8 7 8 12 18 17 15 15 19 20 20 20 23 25 30 32 33 33 33 34 35 38 41 42 43 43 44 44 42 41
-5 -5 -6 -5 -5 -3 -3 -2 6 10 12 14 14 14 12 16 18 18 17 17 18 17 14 15 19 20 22 29 31 32 33 33 35 37 40 41 41 42 41 41 42 42 41
-13 -8 -8 -6 -6 -7 -6 -6 -7 -1 7 9 10 13 16 14 15 16 15 13 14 10 5 7 8 11 13 16 19 26 32 34 37 40 40 41 41 41 40 40 40 41 41
-23 -10 -14 -12 -12 -11 -10 -9 -8 -8 -9 -5 3 9 14 12 13 13 12 7 2 5 3 5 6 8 11 13 14 16 19 30 38 40 40 40 39 39 39 39 39 40 40
-15 -16 -18 -18 -16 -14 -13 -12 -10 -10 -9 -8 -5 0 7 8 9 9 8 -0 -1 1 2 5 7 8 9 12 12 13 15 16 37 39 39 38 38 39 38 39 39 40 39
-21 -10 -14 -22 -19 -17 -15 -14 -12 -13 -11 -10 -8 -8 4 -2 -4 -2 -1 -1 -1 1 3 4 8 9 9 11 11 11 12 15 33 38 38 38 38 39 39 38 38 38 39
-20 -22 -15 -23 -23 -22 -22 -20 -17 -16 -15 -13 -9 -6 10 -4 -5 -4 -3 -2 -2 1 3 4 8 9 10 11 11 10 10 12 16 31 37 37 37 37 38 39 38 38 38
-21 -25 -26 -27 -20 -18 -20 -20 -18 -19 -17 -15 -12 -8 3 -5 -5 -4 -3 -2 -1 1 4 5 7 10 10 10 12 10 8 9 11 14 21 37 37 37 37 38 38 38 38
-17 -17 -20 -22 -21 -19 -19 -23 -19 -18 -17 -18 -15 -12 -9 -8 -6 -6 -5 -3 -1 1 3 5 6 9 11 11 12 13 9 8 10 13 16 26 37 37 37 37 37 37 37
-17 -18 -18 -24 -24 -24 -25 -24 -20 -18 -18 -18 -18 -14 -13 -10 -8 -7 -5 -4 -2 0 3 5 7 6 11 11 12 14 14 11 11 13 15 22 36 36 37 36 37 37 37
-25 -21 -22 -24 -32 -28 -27 -26 -20 -27 -24 -19 -18 -15 -14 -12 -9 -8 -6 -5 -3 -1 1 4 7 7 11 11 11 11 15 12 11 12 13 15 17 22 31 35 36 36 37
-22 -21 -25 -26 -27 -30 -31 -28 -29 -25 -26 -19 -19 -18 -15 -14 -12 -10 -8 -7 -5 -3 -1 3 6 6 8 12 12 13 15 16 11 11 12 12 12 13 16 19 25 30 33
MSLP
1019.54 1019.66 1019.34 1019.09 1018.81 1018.60 1018.20 1017.71 1017.23 1016.65 1015.93 1015.28 1014.48 1013.57 1012.75 1012.04 1011.59 1011.04 1010.37 1009.75 1009.10 1008.43 1008.06 1007.43 1006.09 1005.39 1004.24 1003.16 1001.12 1001.05 1001.11 1000.56 999.62 999.18 999.25 998.62 998.75 995.97 997.07 997.56 997.75 999.25 1000.08
1019.04 1019.06 1018.69 1018.34 1018.23 1018.30 1017.95 1017.63 1017.19 1016.57 1015.86 1015.13 1014.25 1013.35 1012.42 1011.42 1010.71 1010.08 1009.31 1008.67 1007.95 1007.31 1006.89 1006.20 1005.26 1004.26 1003.06 1002.30 1000.27 1000.04 1000.32 1000.04 998.94 998.96 997.69 997.05 997.12 994.88 995.86 996.17 997.76 998.56 999.93
1018.33 1018.07 1018.16 1018.35 1018.17 1018.05 1017.58 1017.25 1016.57 1016.19 1015.46 1014.49 1013.54 1012.53 1011.67 1011.12 1010.12 1009.30 1008.55 1007.64 1006.96 1006.33 1005.90 1005.24 1004.52 1003.70 1002.37 1001.57 999.87 999.13 999.40 999.12 997.91 997.54 997.09 996.95 997.18 994.39 995.13 995.25 996.69 998.17 999.55
1017.66 1017.74 1018.15 1017.98 1017.87 1017.57 1017.08 1016.72 1016.27 1015.69 1014.95 1013.97 1013.05 1012.09 1011.17 1010.42 1009.55 1008.47 1007.48 1006.50 1005.77 1005.15 1004.62 1004.03 1003.42 1002.48 1001.39 1000.62 1000.12 998.50 998.09 997.74 998.07 997.18 997.08 996.53 996.76 994.16 993.96 994.71 996.15 997.47 999.21
1017.89 1018.35 1018.17 1017.81 1017.50 1017.11 1016.86 1016.37 1015.56 1014.81 1014.47 1013.87 1012.66 1011.52 1010.61 1009.80 1008.77 1007.76 1006.72 1005.57 1004.65 1003.92 1003.39 1002.74 1002.15 1001.14 1000.39 999.70 999.17 998.48 997.93 997.76 997.56 997.66 996.67 996.10 994.57 992.49 992.31 992.97 995.04 996.90 999.13
1018.67 1018.76 1018.51 1018.60 1017.99 1017.33 1016.42 1015.96 1015.56 1014.72 1014.03 1013.45 1012.18 1010.90 1009.54 1008.61 1007.68 1006.32 1005.21 1004.17 1003.27 1002.50 1001.77 1001.11 1000.58 1000.05 999.23 998.55 997.78 997.50 997.50 997.34 997.35 997.65 996.55 995.13 993.36 989.91 991.17 992.21 994.22 996.02 998.72
1018.27 1018.89 1019.17 1019.19 1018.57 1017.61 1016.57 1015.74 1015.32 1014.64 1013.64 1012.52 1011.49 1010.27 1008.87 1007.80 1006.77 1005.16 1003.92 1002.83 1001.78 1001.02 1000.59 999.95 999.33 998.60 998.20 997.39 996.84 995.97 995.60 995.43 995.94 995.92 995.84 994.73 990.45 988.95 990.39 991.22 993.03 994.77 996.90
1018.73 1019.17 1019.05 1018.71 1018.32 1017.50 1016.61 1015.37 1015.20 1014.33 1013.05 1011.94 1010.88 1009.57 1008.19 1006.99 1005.71 1004.12 1002.71 1001.49 1000.34 999.33 998.78 998.35 998.09 997.48 996.88 996.44 995.82 995.29 994.94 995.04 995.42 995.24 994.95 992.99 992.26 988.03 988.94 989.75 991.77 994.02 996.68
1019.10 1019.00 1019.04 1018.57 1018.28 1017.61 1016.93 1015.46 1014.52 1013.81 1012.77 1011.61 1010.20 1008.67 1007.66 1006.30 1004.93 1003.02 1001.43 1000.04 998.77 997.49 996.48 996.50 996.54 996.10 995.53 995.49 995.04 994.12 993.55 992.88 992.46 992.58 992.23 990.93 989.94 986.96 988.18 989.94 991.74 993.90 996.25
1018.48 1018.61 1018.55 1018.50 1018.19 1017.93 1016.88 1015.75 1014.38 1013.77 1012.13 1010.90 1009.31 1008.13 1007.02 1005.57 1003.99 1002.05 1000.71 999.11 997.43 996.51 995.25 994.92 995.01 994.60 994.31 993.74 993.56 993.45 992.78 991.67 991.56 991.39 990.56 987.78 986.64 985.89 987.57 988.07 990.05 992.05 994.64
1017.43 1017.65 1017.68 1017.99 1017.84 1017.59 1016.71 1015.76 1014.10 1013.06 1011.60 1010.37 1008.68 1006.91 1005.92 1004.73 1003.22 1001.70 999.84 998.51 997.40 996.07 994.70 993.24 993.14 992.96 992.37 992.39 992.04 991.55 990.63 991.30 991.95 991.66 990.20 986.45 985.53 986.11 987.13 988.02 988.60 990.49 992.75
1016.89 1017.06 1017.26 1017.34 1017.17 1016.75 1016.51 1015.44 1013.62 1012.61 1011.16 1009.47 1007.37 1005.85 1005.07 1003.88 1002.69 1001.02 999.62 998.07 996.74 995.44 994.05 992.79 992.02 991.49 990.97 990.19 989.77 989.63 990.06 990.70 990.78 989.49 987.99 986.08 984.62 985.78 986.47 987.80 988.70 990.14 990.91
1016.86 1016.82 1017.10 1017.03 1016.50 1016.51 1016.07 1014.99 1013.28 1012.14 1010.67 1008.85 1006.97 1005.56 1004.33 1003.13 1001.90 1000.45 998.78 996.93 995.66 994.40 993.38 992.42 991.40 990.65 989.53 988.83 988.73 988.74 988.49 988.75 988.67 988.29 987.47 985.59 984.16 985.37 986.43 987.54 988.78 990.39 991.93
1016.79 1016.75 1016.94 1016.74 1016.35 1016.09 1015.75 1014.59 1013.29 1012.03 1010.38 1008.60 1007.04 1005.71 1004.40 1002.69 1001.29 999.27 997.62 996.17 995.00 993.66 992.54 991.79 991.22 990.27 989.08 987.95 987.76 987.54 987.33 987.55 987.40 987.22 986.54 985.13 984.33 985.44 986.12 986.67 988.59 990.25 992.32
1016.29 1016.50 1016.84 1016.61 1016.60 1016.07 1015.06 1014.42 1013.01 1011.90 1010.31 1008.70 1007.65 1006.43 1004.80 1002.66 1000.91 998.93 997.25 995.71 994.41 992.87 991.29 990.42 989.90 989.82 989.04 987.68 986.77 986.48 986.30 986.26 986.39 986.27 985.67 984.42 984.30 985.17 986.08 986.75 988.24 989.94 991.53
1016.48 1016.74 1016.97 1016.75 1016.71 1016.18 1015.57 1014.23 1012.91 1011.69 1010.51 1009.28 1008.23 1006.90 1005.08 1003.54 1001.27 999.26 997.46 996.12 994.88 993.31 991.23 990.51 989.85 988.95 987.81 986.21 985.44 985.67 985.51 985.33 985.31 984.80 983.84 983.81 983.91 984.70 985.74 987.14 988.07 989.40 990.80
1016.89 1017.13 1017.25 1017.22 1017.10 1016.42 1015.84 1014.90 1013.48 1011.57 1010.89 1009.86 1008.78 1007.23 1005.33 1003.94 1001.94 1000.04 998.43 997.20 996.02 994.76 993.56 992.39 991.63 990.71 989.35 988.05 987.10 986.08 984.71 984.35 983.95 983.40 982.90 983.07 983.29 984.13 985.51 986.81 987.78 988.99 990.45
1016.93 1017.20 1017.60 1017.76 1017.49 1016.95 1016.11 1014.94 1014.07 1013.09 1011.85 1010.50 1009.51 1007.98 1005.78 1004.59 1003.08 1001.46 999.85 998.74 996.73 995.69 995.62 994.57 993.25 992.33 991.12 990.05 989.06 987.65 986.00 984.54 982.70 982.32 982.59 983.07 983.52 984.04 985.24 986.23 987.28 988.49 989.66
1016.97 1017.35 1017.86 1017.92 1017.49 1017.10 1016.24 1015.30 1014.31 1013.70 1012.83 1011.79 1010.30 1008.19 1006.51 1005.82 1004.52 1003.13 1001.69 1000.51 999.57 998.47 997.19 995.56 994.75 993.41 992.32 991.11 989.87 988.12 986.76 985.28 983.09 982.50 982.55 982.86 983.27 983.78 984.61 985.66 986.76 987.89 989.05
1017.19 1017.61 1018.20 1018.16 1017.77 1017.18 1016.52 1015.95 1014.81 1014.49 1013.57 1012.69 1011.61 1010.10 1007.69 1006.75 1005.24 1004.31 1003.43 1002.36 1001.13 999.85 998.77 997.36 995.64 994.41 993.08 991.35 989.99 988.77 987.07 985.41 983.42 982.40 982.36 982.64 983.09 983.60 984.18 985.06 986.17 987.09 988.03
1017.34 1017.99 1018.45 1018.29 1018.07 1017.55 1017.01 1016.59 1015.74 1015.26 1014.62 1013.86 1012.74 1011.24 1009.11 1008.75 1007.53 1006.20 1005.01 1003.83 1002.77 1001.33 999.90 998.67 996.70 995.34 993.81 992.30 990.84 989.26 988.14 986.96 985.26 983.25 982.37 982.32 982.57 983.14 983.83 984.50 985.51 986.53 987.65
1017.48 1018.01 1018.45 1018.36 1018.20 1017.68 1017.29 1016.87 1016.44 1015.87 1015.40 1014.70 1013.53 1012.10 1010.47 1009.56 1008.68 1007.56 1006.41 1005.06 1003.83 1002.56 1001.05 999.57 998.11 996.67 995.25 993.37 991.52 990.30 989.38 988.11 986.64 984.93 983.54 981.85 982.10 982.84 983.51 984.20 985.01 985.82 987.04
1017.58 1018.20 1018.54 1018.35 1018.09 1017.85 1017.63 1017.10 1016.79 1016.45 1015.96 1015.26 1014.36 1013.32 1012.13 1010.94 1009.85 1008.80 1007.69 1006.31 1004.88 1003.53 1001.96 1000.25 998.80 997.23 995.68 994.23 992.88 991.36 990.39 989.34 987.81 986.24 984.87 983.29 982.14 982.56 983.02 983.67 984.45 985.33 986.06
1017.57 1018.22 1018.50 1018.39 1018.13 1018.06 1017.90 1017.58 1017.18 1016.86 1016.58 1015.91 1015.04 1014.29 1013.35 1012.17 1010.95 1009.84 1008.71 1007.40 1005.98 1004.49 1003.08 1001.63 1000.32 999.03 997.14 995.65 993.98 992.23 991.29 990.35 988.55 986.84 985.35 983.52 982.11 982.42 982.90 983.56 984.26 984.88 985.72
1017.88 1018.15 1018.45 1018.34 1018.35 1018.46 1018.04 1017.69 1017.60 1017.30 1017.15 1016.57 1015.82 1015.02 1014.17 1013.19 1011.94 1010.82 1009.65 1008.45 1007.11 1005.64 1004.08 1002.77 1001.54 1000.21 998.42 996.94 995.61 993.84 992.63 991.18 989.48 987.98 986.47 985.24 984.27 983.66 983.45 983.90 984.59 985.04 985.55
1017.89 1018.05 1018.20 1018.43 1018.53 1018.68 1018.22 1018.02 1017.86 1017.72 1017.58 1017.13 1016.51 1015.74 1014.89 1014.01 1013.02 1011.86 1010.71 1009.53 1008.29 1006.79 1005.40 1003.96 1002.44 1001.27 999.94 998.94 997.39 995.83 994.23 992.67 991.57 990.17 988.83 987.71 986.72 986.32 986.00 985.60 985.25 985.50 985.96
Wind_Speed
3 5 5 6 7 9 10 11 12 13 15 16 17 18 17 17 16 16 17 18 19 17 17 18 20 20 14 16 11 10 11 10 13 11 15 16 18 18 16 17 17 19 17
4 5 6 7 8 9 10 12 13 14 15 17 17 18 18 18 17 18 18 17 18 19 18 18 18 14 18 17 11 13 11 13 12 18 12 12 13 17 20 22 19 17 20
4 3 6 7 8 10 11 12 13 15 15 16 17 18 19 19 18 18 18 19 19 19 19 19 18 20 18 13 15 9 10 10 13 12 13 10 13 16 16 17 20 20 18
2 3 7 8 9 10 12 13 13 13 16 16 16 18 18 19 20 20 20 19 18 17 19 18 18 21 19 16 13 12 10 9 11 8 9 14 16 17 16 17 17 14 16
3 5 6 9 10 10 12 13 13 14 14 16 18 17 18 17 14 18 19 19 19 19 19 19 19 21 30 27 13 11 10 8 8 10 13 10 17 19 21 15 17 16 18
4 6 8 10 11 12 13 13 15 15 15 16 17 18 18 14 28 31 27 18 19 19 18 17 18 23 25 33 34 31 18 11 12 9 12 14 29 20 17 19 18 18 16
4 6 8 10 11 12 14 13 14 15 15 17 17 18 18 19 31 32 30 18 18 18 18 18 16 15 21 17 23 28 26 23 21 11 16 22 18 23 21 23 23 23 19
4 5 7 9 10 13 13 13 14 13 15 16 17 17 18 17 32 32 31 19 17 20 19 20 19 19 19 18 14 15 15 12 13 11 17 19 23 23 25 27 27 23 16
5 6 8 9 10 13 13 14 13 14 15 15 15 17 18 19 31 31 27 16 16 21 19 18 17 19 25 30 18 16 16 16 15 24 30 39 45 32 27 19 19 19 16
5 7 8 9 8 11 13 14 13 13 15 14 16 15 19 21 28 30 27 13 15 14 13 17 22 21 30 28 19 16 17 15 13 17 19 23 27 26 34 27 22 23 18
3 5 7 8 9 9 12 13 12 13 14 15 16 15 16 18 19 30 29 14 13 14 13 12 10 25 27 31 30 16 16 11 14 14 15 14 17 20 18 21 27 24 22
4 5 6 7 7 8 11 13 11 12 14 15 15 14 12 17 21 24 31 27 24 14 15 10 10 22 25 26 21 23 27 24 12 11 10 12 15 16 18 20 24 22 23
4 3 3 7 7 9 10 12 10 10 11 13 13 14 15 14 13 28 30 29 26 17 12 18 26 25 26 24 27 28 21 12 9 9 10 11 13 15 20 20 20 19 18
3 4 4 6 9 9 7 7 9 9 11 12 13 14 17 15 15 14 14 14 19 17 19 14 17 22 25 21 14 12 6 7 7 9 12 11 12 13 11 14 14 16 12
3 4 4 4 4 9 8 7 8 9 14 13 12 13 16 16 17 28 26 17 13 15 18 9 9 9 8 8 9 10 7 6 8 10 13 10 11 12 12 13 14 12 13
5 4 3 4 5 6 6 10 14 18 22 22 25 22 14 28 34 33 33 28 26 27 9 5 6 7 8 8 7 7 7 9 9 10 9 12 12 14 13 12 13 15 15
5 3 3 5 5 5 6 6 8 14 21 22 25 29 32 32 33 33 33 28 27 22 12 11 10 10 11 10 9 9 6 8 10 10 8 11 12 11 15 14 13 14 14
4 3 1 3 4 5 5 6 6 8 11 13 19 25 31 33 32 33 34 22 15 18 13 12 12 12 11 11 10 10 9 11 9 8 9 11 12 14 14 15 14 16 14
4 3 1 2 3 4 4 4 5 7 8 9 12 18 20 30 29 29 31 13 14 14 14 13 12 12 12 11 11 10 10 9 10 8 10 10 11 13 14 14 14 20 17
3 4 2 2 3 3 4 5 6 7 8 9 10 13 13 15 16 16 15 14 13 13 14 13 14 13 13 13 12 11 10 10 10 9 9 11 11 13 14 14 15 16 14
3 2 2 2 2 2 2 4 4 4 6 8 9 11 28 11 12 13 14 14 13 14 14 14 14 14 14 13 13 13 11 11 11 8 9 11 11 11 12 14 14 14 14
4 3 1 1 2 3 3 3 4 4 5 6 9 10 25 10 11 12 13 13 13 13 12 14 14 14 15 15 14 14 13 12 11 10 9 8 11 12 10 12 13 13 14
4 4 2 1 1 3 2 3 4 5 6 5 7 9 10 10 10 11 13 13 13 13 13 14 15 15 17 16 15 13 13 13 12 10 10 8 10 11 11 10 11 11 13
4 3 3 2 2 2 2 3 3 5 6 6 6 8 8 10 10 12 12 12 13 13 13 13 14 19 19 19 17 16 15 15 11 10 13 9 6 10 9 11 12 14 12
4 4 2 2 2 1 2 2 4 3 4 5 6 7 8 9 10 11 11 12 12 13 15 15 14 20 22 29 28 30 26 26 23 19 12 13 13 12 5 5 8 9 10
3 4 3 2 2 0 1 2 2 2 3 5 6 6 7 8 8 9 10 12 12 13 16 13 18 24 23 21 27 32 31 30 25 27 16 14 14 13 9 9 7 3 8
Wind_Direction
289 276 281 297 300 296 291 293 293 292 292 291 290 289 286 284 282 277 271 272 268 268 269 265 264 266 265 276 225 229 235 247 242 256 250 244 290 180 174 167 154 155 148
252 278 301 300 300 296 294 296 299 295 292 291 292 292 291 288 285 279 276 272 271 269 268 268 272 272 267 282 242 232 231 240 248 253 253 261 268 187 186 174 168 162 159
254 288 303 300 304 301 302 299 299 295 294 295 295 291 291 289 285 278 274 272 269 269 268 269 267 268 263 265 261 236 243 239 242 245 251 273 261 190 187 154 162 162 163
290 304 297 309 310 301 302 301 299 300 301 299 294 292 290 289 285 283 281 278 273 268 267 262 265 261 261 263 273 236 251 253 268 237 253 256 238 216 170 165 155 157 151
331 314 309 311 304 306 307 301 306 309 304 299 298 295 293 286 283 282 277 273 268 264 262 262 262 264 261 258 259 270 216 238 255 262 256 280 241 198 171 162 155 152 156
333 326 317 312 315 309 309 316 316 313 307 302 298 296 296 289 290 290 287 276 274 273 271 264 261 263 258 257 259 259 249 212 233 245 260 260 250 173 162 158 151 147 148
326 313 310 314 312 318 321 321 317 312 307 306 304 302 298 294 293 290 286 276 270 264 266 268 265 259 266 253 256 261 274 229 229 252 259 247 228 168 164 159 159 156 165
325 311 313 320 315 323 321 323 312 310 311 310 304 301 305 302 300 298 293 281 272 267 253 254 258 263 259 262 257 254 249 237 235 252 248 263 264 180 169 167 167 156 150
338 327 325 328 321 323 315 316 315 312 309 301 303 311 307 300 302 303 298 285 282 281 250 245 246 254 255 258 256 261 269 265 272 273 273 266 256 181 171 155 154 151 157
337 331 336 329 320 311 310 310 311 303 304 306 306 304 302 296 298 310 307 293 291 309 268 252 243 246 255 255 246 245 250 259 279 287 284 260 190 166 172 164 160 158 159
323 332 333 326 313 301 303 304 305 307 309 303 305 311 310 305 309 311 309 316 304 297 286 280 240 247 253 242 247 242 252 273 259 266 277 225 175 168 167 163 166 162 161
12 346 334 309 303 310 303 298 308 309 310 312 316 325 318 312 308 313 313 311 304 294 290 304 258 256 260 254 249 248 246 242 248 259 280 229 170 175 166 165 168 170 177
18 347 304 304 320 310 302 305 317 315 317 317 328 326 324 316 323 311 306 310 314 304 296 290 294 294 298 260 258 259 234 229 236 248 263 218 171 171 167 161 167 169 164
33 20 343 340 325 315 306 313 314 320 321 328 333 330 324 326 319 310 319 313 311 307 300 290 281 283 283 273 255 247 212 215 227 242 260 201 164 166 161 157 170 160 152
88 43 357 333 314 307 316 310 324 323 331 336 335 329 320 329 323 335 333 328 312 300 303 273 274 266 263 246 243 228 221 225 235 234 243 184 162 163 164 162 164 154 158
76 41 357 328 320 318 316 317 334 348 346 346 346 347 329 338 340 344 347 349 348 349 332 322 316 333 321 298 227 223 228 228 233 239 204 179 165 169 157 163 162 167 160
93 50 0 337 323 325 320 321 332 336 348 350 348 350 352 352 354 356 2 3 5 12 13 4 359 347 340 335 328 320 245 231 237 229 183 180 167 162 160 166 164 167 166
109 67 41 312 311 307 307 323 330 342 338 336 342 348 360 360 2 3 9 0 6 12 5 2 355 349 341 335 323 316 311 299 241 209 179 178 171 165 167 171 167 170 165
104 80 19 299 280 293 304 322 343 345 341 335 332 344 358 356 2 7 7 12 2 2 357 354 358 348 340 335 325 318 315 301 258 197 180 177 174 170 171 171 171 174 166
92 68 17 313 318 325 348 346 2 353 349 343 341 337 353 351 359 359 359 358 360 359 358 348 356 352 344 342 340 333 329 324 284 188 180 175 176 179 173 170 175 174 181
100 88 31 9 344 321 332 343 343 340 349 338 333 330 7 356 350 353 352 355 352 352 352 350 355 356 352 346 350 348 343 330 322 312 178 180 175 179 178 174 174 179 175
121 117 90 43 313 358 3 346 345 342 336 339 334 337 353 356 352 352 349 351 349 346 348 354 351 360 355 353 354 356 345 338 329 333 330 189 177 177 175 177 180 176 176
123 119 92 61 359 357 16 0 0 356 342 332 340 340 343 347 348 349 344 344 346 346 348 351 354 357 2 2 356 3 356 341 326 324 317 294 188 181 176 177 179 181 179
131 147 141 118 51 39 8 19 357 359 346 335 341 340 340 337 342 343 342 341 342 344 350 351 356 348 3 6 4 3 9 357 348 340 340 330 190 181 182 182 184 184 184
137 129 115 124 96 53 19 16 20 352 345 337 340 340 335 335 339 341 341 340 340 343 346 349 357 354 358 7 8 8 9 12 14 11 11 17 29 30 35 166 177 180 177
142 147 141 132 119 142 67 35 12 350 350 343 334 331 330 333 332 335 340 339 339 338 342 346 351 355 355 13 10 10 8 20 20 21 25 30 35 32 28 32 50 122 166